{"data":{"norad_id":49383,"epoch":"2026-05-25T05:00:44.301312Z","epoch_age_seconds":53081,"freshness":"FRESH","line1":"1 49383U 21099A   26145.20884608  .00000641  00000+0  13115-3 0  9996","line2":"2 49383  98.2439 278.9920 0000301  45.6026 314.5201 14.64171136243007","mean_motion":14.64171136,"eccentricity":3.01e-5,"inclination_deg":98.2439,"raan_deg":278.992,"arg_perigee_deg":45.6026,"mean_anomaly_deg":314.5201,"bstar":0.00013115,"rev_number":24300,"period_min":98.349159097205,"perigee_km":679.52531121774,"apogee_km":679.95019527789,"semimajor_km":7057.8747532478,"source":"CELESTRAK","updated_at":"2026-05-25T13:37:57.172588Z"}}